Location: Newark
(21.1200°N, 73.4000°E)
Time: 14:47:12
(UTC+00:00)

Courier 1B Rocket - Visible Passes

Search period start: 19 January 2021 00:00
Search period end: 29 January 2021 00:00
Orbit: 920 x 1202 km, 28.2° (Epoch: 18 January)

Date Brightness Start Highest point End Pass type
(mag) Time Alt. Az. Time Alt. Az. Time Alt. Az.
20 Jan 6.6 00:37:29 10° SSW 00:43:27 35° SSE 00:49:49 10° E visible
20 Jan 7.0 23:37:32 10° SSW 23:42:30 23° SSE 23:47:41 10° E visible
21 Jan 7.3 22:41:10 14° SSE 22:41:33 14° SSE 22:44:45 10° ESE visible
22 Jan 5.8 00:28:16 10° SW 00:34:36 51° SSE 00:41:23 10° E visible
22 Jan 6.3 23:31:14 26° S 23:33:37 34° SSE 23:39:40 10° E visible
23 Jan 5.2 01:20:16 10° WSW 01:26:56 86° NNW 01:34:10 10° ENE visible
23 Jan 7.1 22:34:43 19° ESE 22:34:43 19° ESE 22:37:38 10° E visible
24 Jan 5.2 00:21:09 20° WSW 00:25:48 72° SSE 00:32:45 10° ENE visible
24 Jan 5.5 23:24:30 50° SSE 23:24:49 51° SSE 23:31:17 10° E visible
25 Jan 5.2 01:11:47 10° W 01:18:18 67° NNW 01:25:21 10° ENE visible
25 Jan 7.2 22:27:45 18° E 22:27:45 18° E 22:29:41 10° E visible
26 Jan 4.9 00:14:10 35° WSW 00:17:08 84° NNW 00:24:00 10° ENE visible
26 Jan 5.4 23:17:19 58° E 23:17:19 58° E 23:22:41 10° ENE visible
27 Jan 5.3 01:03:42 11° W 01:09:46 55° N 01:16:35 10° ENE visible
27 Jan 7.5 22:20:22 14° E 22:20:22 14° E 22:21:20 10° E visible
28 Jan 5.0 00:06:46 47° WNW 00:08:33 65° NNW 00:15:14 10° ENE visible
28 Jan 5.9 23:09:44 42° ENE 23:09:44 42° ENE 23:13:59 10° ENE visible
